Home > Weather > Tsu > Past weeks

Flag for Japan Past Weather in Tsu, Japan — Yesterday and Last 2 Weeks

Now
74 °F

Mild.


Feels Like: 77 °F
Forecast: 64 / 77 °F
Wind: 7 mph from South

Location: Tsu

Current Time: May 24, 2016 at 10:54:48 PM

Latest Report: May 24, 2016 at 10:00 PM


Visibility: N/A

Pressure: 29.93 "Hg

Humidity: 53%

Dew Point: 56 °F

Location of TsuLocation

Past Weather in Tsu — Graph

°F

Tsu Temperature Yesterday

Maximum temperature yesterday: 84 °F (at 6:00 PM)
Minimum temperature yesterday: 67 °F (at 5:00 AM)
Average temperature yesterday: 76 °F

High & Low Weather Summary for the Past Weeks

 TemperatureHumidityPressure
High84 °F (May 23, 6:00 PM)97% (May 10, 2:00 AM)30.22 "Hg (May 10, 2:00 AM)
Low56 °F (May 17, 7:00 AM)19% (May 21, 4:00 PM)29.47 "Hg (May 11, 4:00 AM)
Average68 °F68%29.98 "Hg
* Reported May 9 9:00 PM — May 24 9:00 PM, Tsu, Weather by CustomWeather, © 2016

Note: Actual official high and low records may vary slightly from our data, if they occured in-between our weather recording intervals... More about our weather records

Advertising

Tsu Weather History for the Previous 24 Hours

Scroll right to see more
 ConditionsComfort  
Time TempWeatherWind HumidityBarometerVisibility
9:00 PM
Tue, May 24
75 °FOvercast.12 mph48%29.93 "Hg9 mi
8:00 PM75 °FMild.9 mph46%29.90 "HgN/A
7:00 PM77 °FMild.15 mph37%29.89 "HgN/A
6:00 PM78 °FPleasantly warm.17 mph31%29.88 "HgN/A
5:00 PM79 °FWarm.18 mph41%29.85 "HgN/A
4:00 PM80 °FWarm.16 mph43%29.85 "HgN/A
3:00 PM80 °FOvercast.14 mph61%29.87 "Hg9 mi
2:00 PM76 °FMild.17 mph75%29.88 "HgN/A
1:00 PM77 °FWarm.10 mph70%29.91 "HgN/A
12:00 PM76 °FMild.8 mph73%29.93 "HgN/A
11:00 AM75 °FMild.5 mph70%29.94 "HgN/A
10:00 AM74 °FMild.5 mph66%29.96 "HgN/A
9:00 AM74 °FPassing clouds.5 mph64%29.97 "Hg6 mi
8:00 AM73 °FMild.3 mph63%29.97 "HgN/A
7:00 AM71 °FMild.2 mph58%29.97 "HgN/A
6:00 AM68 °FMild.3 mph65%29.96 "HgN/A
5:00 AM67 °FMild.5 mph61%29.96 "HgN/A
4:00 AM67 °FMild.6 mph58%29.95 "HgN/A
3:00 AM68 °FMild.5 mph59%29.94 "HgN/A
2:00 AM69 °FMild.3 mph54%29.94 "HgN/A
1:00 AM71 °FMild.3 mph48%29.94 "HgN/A
12:00 AM72 °FMild.3 mph46%29.95 "HgN/A
11:00 PM
Mon, May 23
72 °FMild.2 mph45%29.95 "HgN/A
10:00 PM75 °FMild.3 mph42%29.95 "HgN/A
Weather by CustomWeather, © 2016

See weather overviewHow to use our weather pages